Regional Weather Roundup
Issued by NWS Green Bay, WI

Home | Current Version | Previous Version | Text Only | Print | Product List | Glossary On
Versions: 1 2 3 4 5 6 7 8 9 10 11 12 13 14 15 16 17 18 19 20 21 22 23 24 25 26 27 28 29 30 31 32 33 34 35 36 37 38 39 40 41 42 43 44 45 46 47 48 49 50
000
ASUS43 KGRB 250811
RWRGRB

NORTH-CENTRAL AND NORTHEAST WISCONSIN REGIONAL WEATHER ROUNDUP
NATIONAL WEATHER SERVICE GREEN BAY WI
200 AM CST SAT FEB 25 2017

WIZ005-009-010>012-018-019-250900-
NORTH CENTRAL WISCONSIN

CITY           SKY/WX    TMP DP  RH WIND       PRES   REMARKS
IRONWOOD       LGT SNOW  16  12  84 NW12      29.69F FOG     WCI   3
MANITOWISH WTR LGT SNOW  14  13  95 N9        29.63F WCI   2
ARBOR VITAE    LGT SNOW  17  13  84 N8          N/A  WCI   6
EAGLE RIVER    LGT SNOW  15  10  81 NW10G17   29.59F WCI   2
LAND O LAKES   LGT SNOW  15  11  84 N8        29.61F WCI   5
RHINELANDER    LGT SNOW  16  11  80 NW10      29.60F WCI   4
PHILLIPS       LGT SNOW  14  10  85 NW7G16    29.67F WCI   4
ANTIGO         FLURRIES  16  11  82 NW14G21   29.58S WCI   1
TOMAHAWK       LGT SNOW  15  11  84 NW8       29.63F WCI   4
MERRILL        NOT AVBL
$$

WIZ013-073-250900-
NORTHEAST WISCONSIN

CITY           SKY/WX    TMP DP  RH WIND       PRES   REMARKS
IRON MOUNTAIN  LGT SNOW  19  12  74 NW20G25   29.53F WCI   3
MARINETTE      CLOUDY    21  18  88 N14G21    29.54F WCI   8
OCONTO         CLOUDY    21  16  79 NW8       29.56S
$$

WIZ017-030-035>037-045-250900-
CENTRAL WISCONSIN

CITY           SKY/WX    TMP DP  RH WIND       PRES   REMARKS
MEDFORD        LGT SNOW  15  10  80 NW17G23   29.65S WCI  -2
WAUSAU         CLOUDY    18  11  74 NW14G20   29.62S WCI   4
MOSINEE        LGT SNOW  18  14  86 NW14G20   29.64S WCI   4
MARSHFIELD     LGT SNOW  16  11  80 NW18      29.66S WCI   0
WISC RAPIDS    LGT SNOW  18  15  88 NW14G20   29.68R FOG     WCI   4
STEVENS POINT  LGT SNOW  17  13  86 NW12G17   29.64S WCI   4
WAUPACA        LGT SNOW  22  17  82 NW8       29.63S
SHAWANO        LGT SNOW  22  18  83 CALM      29.59S
CLINTONVILLE   LGT SNOW  21  16  79 NW8       29.60S
WAUTOMA        LGT SNOW  19  16  88 NW12      29.65S FOG     WCI   7
$$

WIZ038-039-048-051-250900-
FOX VALLEY

CITY           SKY/WX    TMP DP  RH WIND       PRES   REMARKS
NWS GREEN BAY  FLURRIES  22  18  85 NW16      29.57F WCI   8
APPLETON       LGT SNOW  21  16  79 NW8       29.57F
OSHKOSH        LGT SNOW  20  17  88 NW12      29.59F FOG     WCI   8
FOND DU LAC    LGT SNOW  21  16  81 NW13      29.60S WCI   9
$$

WIZ022-050-052-250900-
EAST CENTRAL WISCONSIN

CITY           SKY/WX    TMP DP  RH WIND       PRES   REMARKS
EPHRAIM        CLOUDY    23  22  97 N7        29.49F
WASHINGTON ISL CLOUDY    25  22  90 N10       29.48F FOG
STURGEON BAY   FLURRIES  22  20  92 MISG      29.53S
MANITOWOC      LGT SNOW  23  20  88 NW15      29.55F FOG
SHEBOYGAN      LGT SNOW  22  19  89 NW10      29.56F FOG
$$

LMZ563-521-522-541>543-250900-
LAKESHORE

STATION/POSITION TIME  TEMP    WIND        PRES    VSBY  WAVE
                       AIR SEA DIR/SP/G                  HT/PER
                 (UTC) (F)     (DEG/KT/KT) (MB)    (MI)  (FT/S)
SHEBOYGAN LKSHOR 0800   23     320/  6/  6 1001.6F
KEWAUNEE LKSHORE 0748   23     330/ 12/ 18  999.8F
NORTHPORT PIER   0740   26     330/  3/  4  999.0F
SISTER BAY LKSHO 0735   24        CALM       N/A
MENOMINEE LKSHOR 0748   22     300/ 14/ 20  999.6F
$$




USA.gov is the U.S. government's official web portal to all federal, state and local government web resources and services.